Ypsilanti, MI

2:21 AM EDT on September 25, 2016 (GMT -0400)
Willow Run

Weather History for KYIP - November, 2012

Change the Weather History Date:

Saturday, November 24, 2012

  Actual Average Record
Temperature  
Mean Temperature 34 °F -  
Max Temperature 35 °F 43 °F 64 °F (2001)
Min Temperature 32 °F 29 °F 12 °F (2005)
Degree Days  
Heating Degree Days 32    
Moisture  
Dew Point 21 °F    
Average Humidity 61    
Maximum Humidity 70    
Minimum Humidity 54    
Precipitation  
Precipitation 0.00 in - - ()
Sea Level Pressure  
Sea Level Pressure 30.08 in    
Wind  
Wind Speed 14 mph (WNW)    
Max Wind Speed 18 mph    
Max Gust Speed 29 mph    
Visibility 10 miles    
Events      
Averages and records for this station are not official NWS values.
T = Trace of Precipitation, MM = Missing Value Source: NWS Daily Summary

Daily Weather History Graph

Daily Weather History Graph

Search for Another Location

Airport or City:

Trip Planner

Search our weather history database for the weather conditions in past years. The results will help you decide how hot, cold, wet, or windy it might be!

Date:

Astronomy

Nov. 24, 2012 Rise Set
Actual Time 7:36 AM EST 5:05 PM EST
Civil Twilight 7:05 AM EST 5:36 PM EST
Nautical Twilight 6:30 AM EST 6:10 PM EST
Astronomical Twilight 5:57 AM EST 6:44 PM EST
Moon 2:52 PM EST (11/24) 3:48 AM EST (11/24)
Length of Visible Light 10h 31m
Length of Day
9h 29m
Waxing Gibbous, 87% of the Moon is Illuminated
Nov 24
Waxing Gibbous
Nov 28
Full
Dec 6
Last Quarter
Dec 13
New
Dec 20
First Quarter

Hourly Weather History & Observations

Time (EST) Temp. Windchill Dew Point Humidity Pressure Visibility Wind Dir Wind Speed Gust Speed Precip Events Conditions
12:53 AM 35.1 °F 25.2 °F 26.1 °F 70% 30.03 in 10.0 mi WNW 16.1 mph 25.3 mph N/A   Overcast
1:53 AM 34.0 °F 25.5 °F 25.0 °F 70% 30.04 in 10.0 mi WNW 11.5 mph 21.9 mph N/A   Overcast
2:53 AM 34.0 °F 23.8 °F 25.0 °F 70% 30.04 in 10.0 mi WNW 16.1 mph - N/A   Overcast
3:53 AM 34.0 °F 23.8 °F 24.1 °F 67% 30.05 in 10.0 mi WNW 16.1 mph 24.2 mph N/A   Overcast
4:53 AM 34.0 °F 23.8 °F 23.0 °F 64% 30.05 in 10.0 mi WNW 16.1 mph - N/A   Overcast
5:53 AM 34.0 °F 24.2 °F 23.0 °F 64% 30.07 in 10.0 mi WNW 15.0 mph - N/A   Overcast
6:53 AM 33.1 °F 23.4 °F 21.9 °F 64% 30.08 in 10.0 mi WNW 13.8 mph - N/A   Overcast
7:53 AM 33.1 °F 23.4 °F 21.9 °F 64% 30.09 in 10.0 mi WNW 13.8 mph - N/A   Overcast
8:53 AM 34.0 °F 25.0 °F 23.0 °F 64% 30.10 in 10.0 mi WNW 12.7 mph 20.7 mph N/A   Overcast
9:53 AM 35.1 °F 24.5 °F 21.9 °F 59% 30.11 in 10.0 mi WNW 18.4 mph 28.8 mph N/A   Overcast
10:53 AM 35.1 °F 25.2 °F 21.0 °F 57% 30.12 in 10.0 mi NW 16.1 mph 26.5 mph N/A   Overcast
11:53 AM 34.0 °F 25.0 °F 21.9 °F 61% 30.12 in 10.0 mi NW 12.7 mph - N/A   Overcast
12:53 PM 34.0 °F 23.8 °F 21.0 °F 59% 30.10 in 10.0 mi WNW 16.1 mph 21.9 mph N/A   Overcast
1:53 PM 35.1 °F 25.2 °F 21.0 °F 57% 30.09 in 10.0 mi West 16.1 mph - N/A   Overcast
2:53 PM 35.1 °F 25.2 °F 19.9 °F 54% 30.09 in 10.0 mi West 16.1 mph - N/A   Overcast
3:53 PM 34.0 °F 23.8 °F 19.9 °F 56% 30.11 in 10.0 mi WNW 16.1 mph - N/A   Overcast
4:53 PM 33.1 °F 22.6 °F 19.0 °F 56% 30.10 in 10.0 mi NW 16.1 mph - N/A   Overcast
5:53 PM 33.1 °F 23.0 °F 19.0 °F 56% 30.11 in 10.0 mi West 15.0 mph 21.9 mph N/A   Overcast
6:53 PM 33.1 °F 24.4 °F 18.0 °F 54% 30.11 in 10.0 mi NW 11.5 mph - N/A   Overcast
7:53 PM 32.0 °F 23.0 °F 18.0 °F 56% 30.11 in 10.0 mi WNW 11.5 mph - N/A   Overcast
8:53 PM 32.0 °F 22.5 °F 18.0 °F 56% 30.08 in 10.0 mi WNW 12.7 mph - N/A   Overcast
9:53 PM 32.0 °F 23.6 °F 19.0 °F 59% 30.07 in 10.0 mi West 10.4 mph - N/A   Overcast
10:53 PM 32.0 °F 26.4 °F 19.0 °F 59% 30.06 in 10.0 mi WSW 5.8 mph - N/A   Overcast
11:53 PM 32.0 °F 24.2 °F 19.0 °F 59% 30.06 in 10.0 mi WSW 9.2 mph - N/A   Overcast